Time,TemperatureF,DewpointF,PressureIn,WindDirection,WindDirectionDegrees,WindSpeedMPH,WindSpeedGustMPH,Humidity,HourlyPrecipIn,Conditions,Clouds,dailyrainin,SoftwareType,DateUTC
2013-03-21 00:00:00,52.0,-46.0,29.90,NNE,22,0.0,0.0,1,0.00,,,0.00,Weather View 32 v70,2013-03-21 07:00:00,
2013-03-21 00:30:00,51.0,-46.6,29.89,NNE,22,0.0,0.0,1,0.00,,,0.00,Weather View 32 v70,2013-03-21 07:30:00,
2013-03-21 01:00:00,52.0,-46.0,29.89,WNW,292,5.0,6.0,1,0.00,,,0.00,Weather View 32 v70,2013-03-21 08:00:00,
2013-03-21 01:30:00,52.0,-46.0,29.89,WNW,292,1.0,6.0,1,0.00,,,0.00,Weather View 32 v70,2013-03-21 08:30:00,
2013-03-21 02:00:00,52.0,-46.0,29.88,WNW,292,0.0,6.0,1,0.00,,,0.00,Weather View 32 v70,2013-03-21 09:00:00,
2013-03-21 02:30:00,51.0,-46.6,29.88,WNW,292,2.0,5.0,1,0.00,,,0.00,Weather View 32 v70,2013-03-21 09:30:00,
2013-03-21 03:00:00,51.0,-46.6,29.88,NW,315,4.0,7.0,1,0.00,,,0.00,Weather View 32 v70,2013-03-21 10:00:00,
2013-03-21 03:30:00,51.0,-46.6,29.87,NNW,337,1.0,7.0,1,0.00,,,0.00,Weather View 32 v70,2013-03-21 10:30:00,
2013-03-21 04:00:00,50.0,-47.2,29.87,NW,315,2.0,7.0,1,0.00,,,0.00,Weather View 32 v70,2013-03-21 11:00:00,
2013-03-21 04:30:00,49.0,-47.8,29.85,NW,315,0.0,7.0,1,0.00,,,0.00,Weather View 32 v70,2013-03-21 11:30:00,
2013-03-21 05:00:00,48.0,-48.4,29.85,NW,315,0.0,6.0,1,0.00,,,0.00,Weather View 32 v70,2013-03-21 12:00:00,
2013-03-21 05:30:00,49.0,-47.8,29.85,NW,315,0.0,0.0,1,0.00,,,0.00,Weather View 32 v70,2013-03-21 12:30:00,
2013-03-21 06:00:00,50.0,-47.2,29.86,WNW,292,1.0,6.0,1,0.00,,,0.00,Weather View 32 v70,2013-03-21 13:00:00,
2013-03-21 06:30:00,50.0,-47.2,29.87,WNW,292,4.0,7.0,1,0.00,,,0.00,Weather View 32 v70,2013-03-21 13:30:00,
2013-03-21 07:00:00,50.0,-47.2,29.87,NNW,337,0.0,7.0,1,0.00,,,0.00,Weather View 32 v70,2013-03-21 14:00:00,
2013-03-21 07:30:00,51.0,-46.6,29.88,WNW,292,0.0,12.0,1,0.00,,,0.00,Weather View 32 v70,2013-03-21 14:30:00,
2013-03-21 08:00:00,52.0,-46.0,29.89,NW,315,1.0,12.0,1,0.00,,,0.00,Weather View 32 v70,2013-03-21 15:00:00,
2013-03-21 08:30:00,52.0,-46.0,29.89,WNW,292,6.0,7.0,1,0.00,,,0.00,Weather View 32 v70,2013-03-21 15:30:00,
2013-03-21 09:00:00,52.0,-46.0,29.89,WNW,292,0.0,9.0,1,0.00,,,0.00,Weather View 32 v70,2013-03-21 16:00:00,
2013-03-21 09:30:00,52.0,-46.0,29.90,WNW,292,3.0,10.0,1,0.00,,,0.00,Weather View 32 v70,2013-03-21 16:30:00,
2013-03-21 10:00:00,53.0,-45.3,29.90,NNW,337,4.0,10.0,1,0.00,,,0.00,Weather View 32 v70,2013-03-21 17:00:00,
2013-03-21 10:30:00,53.0,-45.3,29.91,NNE,22,0.0,9.0,1,0.00,,,0.00,Weather View 32 v70,2013-03-21 17:30:00,
2013-03-21 11:00:00,55.0,-44.1,29.91,NNW,337,3.0,9.0,1,0.00,,,0.00,Weather View 32 v70,2013-03-21 18:00:00,
2013-03-21 11:30:00,58.0,42.4,29.93,NNE,22,3.0,9.0,56,0.00,,,0.00,Weather View 32 v70,2013-03-21 18:30:00,
2013-03-21 12:00:00,60.0,52.8,29.93,NNE,22,2.0,10.0,77,0.00,,,0.00,Weather View 32 v70,2013-03-21 19:00:00,
2013-03-21 12:30:00,60.0,53.8,29.93,NNE,22,0.0,12.0,80,0.00,,,0.00,Weather View 32 v70,2013-03-21 19:30:00,
2013-03-21 13:00:00,63.0,56.7,29.92,NW,315,0.0,13.0,80,0.00,,,0.00,Weather View 32 v70,2013-03-21 20:00:00,
2013-03-21 13:30:00,64.0,58.4,29.91,NNE,22,1.0,13.0,82,0.00,,,0.00,Weather View 32 v70,2013-03-21 20:30:00,
2013-03-21 14:00:00,63.0,57.4,29.91,WNW,292,8.0,15.0,82,0.00,,,0.00,Weather View 32 v70,2013-03-21 21:00:00,
2013-03-21 14:30:00,64.0,57.7,29.91,NW,315,3.0,15.0,80,0.00,,,0.00,Weather View 32 v70,2013-03-21 21:30:00,
2013-03-21 15:00:00,64.0,57.3,29.90,NNW,337,4.0,15.0,79,0.00,,,0.00,Weather View 32 v70,2013-03-21 22:00:00,
2013-03-21 15:30:00,65.0,57.2,29.90,North,360,9.0,14.0,76,0.00,,,0.00,Weather View 32 v70,2013-03-21 22:30:00,
2013-03-21 16:00:00,67.0,58.0,29.89,NNW,337,7.0,14.0,73,0.00,,,0.00,Weather View 32 v70,2013-03-21 23:00:00,
2013-03-21 16:30:00,67.0,56.9,29.89,NW,315,6.0,11.0,70,0.00,,,0.00,Weather View 32 v70,2013-03-21 23:30:00,
2013-03-21 17:00:00,68.0,57.0,29.89,NNW,337,0.0,11.0,68,0.00,,,0.00,Weather View 32 v70,2013-03-22 00:00:00,
2013-03-21 17:30:00,67.0,56.1,29.88,NNW,337,0.0,10.0,68,0.00,,,0.00,Weather View 32 v70,2013-03-22 00:30:00,
2013-03-21 18:00:00,68.0,56.2,29.87,NE,45,3.0,10.0,66,0.00,,,0.00,Weather View 32 v70,2013-03-22 01:00:00,
2013-03-21 18:30:00,67.0,55.6,29.86,NNW,337,0.0,7.0,67,0.00,,,0.00,Weather View 32 v70,2013-03-22 01:30:00,
2013-03-21 19:00:00,65.0,54.6,29.85,WSW,247,0.0,5.0,69,0.00,,,0.00,Weather View 32 v70,2013-03-22 02:00:00,
2013-03-21 19:30:00,62.0,52.1,29.85,WNW,292,9.0,12.0,70,0.00,,,0.00,Weather View 32 v70,2013-03-22 02:30:00,
2013-03-21 20:00:00,59.0,48.8,29.84,WNW,292,4.0,13.0,69,0.00,,,0.00,Weather View 32 v70,2013-03-22 03:00:00,
2013-03-21 20:30:00,58.0,47.5,29.84,NNW,337,3.0,13.0,68,0.00,,,0.00,Weather View 32 v70,2013-03-22 03:30:00,
2013-03-21 21:00:00,55.0,47.2,29.84,WNW,292,0.0,8.0,75,0.00,,,0.00,Weather View 32 v70,2013-03-22 04:00:00,
2013-03-21 21:30:00,54.0,49.3,29.83,East,90,1.0,7.0,84,0.00,,,0.00,Weather View 32 v70,2013-03-22 04:30:00,
2013-03-21 22:00:00,52.0,48.5,29.83,NW,315,0.0,6.0,88,0.00,,,0.00,Weather View 32 v70,2013-03-22 05:00:00,
2013-03-21 22:30:00,52.0,48.2,29.82,West,270,4.0,6.0,87,0.00,,,0.00,Weather View 32 v70,2013-03-22 05:30:00,
2013-03-21 23:00:00,51.0,47.6,29.82,WNW,292,1.0,6.0,88,0.00,,,0.00,Weather View 32 v70,2013-03-22 06:00:00,
2013-03-21 23:30:00,49.0,43.4,29.81,WNW,292,2.0,6.0,81,0.00,,,0.00,Weather View 32 v70,2013-03-22 06:30:00,